User: anonymous   Login
Location: Unspecified
(0.0000°N, 0.0000°E)
Time: 23:05:52
(UTC+00:00)
Language:

TABLETSAT AURORA - Orbit

View from above orbital plane
View from above orbital plane
View from above satellite
View from above satellite

Ground track
Ground track

The orbit data is extracted from the following two-line orbital elements,

1 40017U 14033H   18344.45439454  .00000774  00000-0  79480-4 0  9991
2 40017  97.9678 275.7597 0023146 341.0623  18.9720 14.93221208243746
Epoch (UTC): 10 December 2018 10:54:19
Eccentricity: 0.0023146
inclination: 97.9678°
perigee height: 572 km
apogee height: 604 km
right ascension of ascending node: 275.7597°
argument of perigee: 341.0623°
revolutions per day: 14.93221208
mean anomaly at epoch: 18.9720°
orbit number at epoch: 24374

The dashed part of the orbit path shows where the satellite is in the earth's shadow,  

DLR